Diboll, TX

2:41 AM CDT on August 28, 2016 (GMT -0500)
Angelina County

Weather History for KLFK - April, 2014

Change the Weather History Date:

Friday, April 4, 2014

  Actual Average Record
Temperature  
Mean Temperature 66 °F 64 °F  
Max Temperature 75 °F 76 °F 90 °F (1918)
Min Temperature 57 °F 52 °F 30 °F (1987)
Degree Days  
Heating Degree Days 0 4  
Month to date heating degree days 0 16  
Since 1 July heating degree days 2053 1860  
Cooling Degree Days 1 3  
Month to date cooling degree days 32 10  
Year to date cooling degree days 67 70  
Growing Degree Days 16 (Base 50)    
Moisture  
Dew Point 47 °F    
Average Humidity 57    
Maximum Humidity 93    
Minimum Humidity 20    
Precipitation  
Precipitation 0.04 in 0.10 in 2.26 in (2008)
Month to date precipitation 0.04 0.39  
Year to date precipitation 5.41 12.22  
Snow  
Snow 0.00 in - - ()
Month to date snowfall 0.0  
Since 1 July snowfall 3.2  
Snow Depth 0.00 in    
Sea Level Pressure  
Sea Level Pressure 29.97 in    
Wind  
Wind Speed 10 mph (NNW)    
Max Wind Speed 21 mph    
Max Gust Speed 34 mph    
Visibility 8 miles    
Events Rain , Thunderstorm    
T = Trace of Precipitation, MM = Missing Value Source: NWS Daily Summary

Daily Weather History Graph

Daily Weather History Graph

Search for Another Location

Airport or City:

Trip Planner

Search our weather history database for the weather conditions in past years. The results will help you decide how hot, cold, wet, or windy it might be!

Date:

Astronomy

Apr. 04, 2014 Rise Set
Actual Time 7:04 AM CDT 7:40 PM CDT
Civil Twilight 6:39 AM CDT 8:04 PM CDT
Nautical Twilight 6:10 AM CDT 8:33 PM CDT
Astronomical Twilight 5:41 AM CDT 9:02 PM CDT
Moon 10:35 AM CDT (4/4) No Moon Set
Length of Visible Light 13h 25m
Length of Day
12h 36m
Waxing Crescent, 25% of the Moon is Illuminated
Apr 4
Waxing Crescent
Apr 7
First Quarter
Apr 15
Full
Apr 22
Last Quarter
Apr 29
New

Hourly Weather History & Observations

Time (CDT) Temp. Dew Point Humidity Pressure Visibility Wind Dir Wind Speed Gust Speed Precip Events Conditions
12:53 AM 75.0 °F 71.1 °F 87% 29.78 in 3.0 mi South 9.2 mph - N/A   Overcast
1:53 AM 75.0 °F 71.1 °F 87% 29.80 in 5.0 mi SW 8.1 mph - N/A   Overcast
2:23 AM 75.0 °F 71.1 °F 87% 29.82 in 2.0 mi SW 6.9 mph - 0.00 in Rain Light Rain
2:45 AM 73.9 °F 71.1 °F 91% 29.82 in 3.0 mi SSW 4.6 mph - 0.01 in   Overcast
2:53 AM 73.9 °F 71.1 °F 91% 29.82 in 4.0 mi WSW 5.8 mph - 0.01 in   Overcast
3:53 AM 73.9 °F 71.1 °F 91% 29.82 in 4.0 mi WSW 6.9 mph - N/A   Overcast
4:23 AM 73.9 °F 71.1 °F 91% 29.83 in 4.0 mi West 6.9 mph - N/A Thunderstorm Overcast
4:39 AM 66.9 °F 60.1 °F 79% 29.87 in 10.0 mi NNW 17.3 mph 27.6 mph 0.00 in   Overcast
4:53 AM 66.0 °F 55.9 °F 70% 29.87 in 10.0 mi NNW 13.8 mph 21.9 mph 0.00 in   Mostly Cloudy
5:26 AM 63.0 °F 48.9 °F 60% 29.88 in 10.0 mi North 18.4 mph 27.6 mph 0.00 in Rain , Thunderstorm Light Thunderstorms and Rain
5:41 AM 61.0 °F 45.0 °F 56% 29.92 in 10.0 mi NNW 15.0 mph 33.4 mph 0.00 in Rain , Thunderstorm Light Rain
5:49 AM 60.8 °F 46.4 °F 59% 29.95 in 10.0 mi NW 10.4 mph 24.2 mph 0.00 in Thunderstorm Thunderstorm
5:53 AM 61.0 °F 48.0 °F 62% 29.96 in 10.0 mi NW 12.7 mph 20.7 mph 0.00 in Thunderstorm Thunderstorm
6:06 AM 61.0 °F 48.9 °F 64% 29.99 in 10.0 mi WNW 6.9 mph 19.6 mph N/A Thunderstorm Mostly Cloudy
6:27 AM 57.9 °F 48.9 °F 72% 30.00 in 6.0 mi WSW 5.8 mph - 0.03 in Rain Light Rain
6:53 AM 57.0 °F 48.0 °F 72% 29.92 in 10.0 mi North 13.8 mph 18.4 mph 0.03 in Rain Light Rain
7:53 AM 57.0 °F 45.0 °F 64% 29.97 in 10.0 mi NNW 12.7 mph 20.7 mph 0.00 in   Clear
8:53 AM 57.9 °F 43.0 °F 58% 30.04 in 10.0 mi North 9.2 mph - N/A   Clear
9:53 AM 60.1 °F 37.9 °F 44% 30.06 in 10.0 mi North 19.6 mph 26.5 mph N/A   Clear
10:53 AM 63.0 °F 39.0 °F 41% 30.09 in 10.0 mi North 11.5 mph - N/A   Clear
11:53 AM 66.9 °F 34.0 °F 30% 30.10 in 10.0 mi North 13.8 mph 24.2 mph N/A   Clear
12:53 PM 69.1 °F 33.1 °F 26% 30.09 in 10.0 mi North 13.8 mph - N/A   Clear
1:53 PM 71.1 °F 33.1 °F 25% 30.07 in 10.0 mi NNW 15.0 mph 19.6 mph N/A   Partly Cloudy
2:53 PM 73.9 °F 30.0 °F 20% 30.05 in 10.0 mi North 9.2 mph - N/A   Clear
3:53 PM 73.9 °F 32.0 °F 21% 30.02 in 10.0 mi North 13.8 mph 18.4 mph N/A   Clear
4:53 PM 73.0 °F 32.0 °F 22% 30.01 in 10.0 mi North 10.4 mph 18.4 mph N/A   Clear
5:53 PM 72.0 °F 33.1 °F 24% 30.02 in 10.0 mi North 8.1 mph - N/A   Clear
6:53 PM 69.1 °F 33.1 °F 26% 30.02 in 10.0 mi North 6.9 mph - N/A   Clear
7:53 PM 64.9 °F 37.0 °F 36% 30.04 in 10.0 mi North 3.5 mph - N/A   Clear
8:53 PM 60.1 °F 39.9 °F 47% 30.05 in 9.0 mi NNE 5.8 mph - N/A   Clear
9:53 PM 60.1 °F 39.9 °F 47% 30.07 in 10.0 mi North 5.8 mph - N/A   Clear
10:53 PM 60.1 °F 37.9 °F 44% 30.08 in 10.0 mi North 5.8 mph - N/A   Clear
11:53 PM 60.1 °F 37.0 °F 42% 30.07 in 10.0 mi North 5.8 mph - N/A   Overcast